Wind_Speed
15 14 13 13 12 12 13 15 16 17 19 20 21 22 22 23 24 25 27 28 29 30 31 32 33 35 34 35 38 38 38 38 40 41 41 40 41 41 41 40 39 38 37 37
13 14 14 12 11 11 11 12 13 14 17 19 20 21 22 23 24 25 26 27 28 30 31 32 33 34 35 34 36 39 38 38 39 40 40 40 41 41 41 41 40 40 39 37
14 13 13 12 10 9 10 10 11 12 13 16 18 19 21 22 24 26 26 27 27 29 31 31 32 33 34 34 35 36 38 38 38 38 40 40 40 41 41 41 42 41 41 40
14 13 11 11 10 10 10 9 10 11 12 13 16 18 20 21 23 25 27 27 28 29 31 32 32 33 34 34 34 35 37 37 36 37 39 40 40 41 42 41 41 42 43 41
13 12 11 10 9 9 9 8 9 10 12 13 15 17 20 22 22 24 26 27 27 28 31 32 32 33 34 35 35 35 35 36 37 38 38 39 39 39 40 41 41 42 42 41
14 13 12 10 8 9 9 10 9 10 12 14 15 17 18 19 20 21 24 26 27 28 31 33 33 33 34 35 35 35 35 35 35 36 38 38 39 39 40 40 40 40 41 41
13 12 11 10 9 10 10 10 10 11 12 14 15 18 18 19 20 21 23 24 25 27 29 31 33 33 34 35 35 35 35 35 35 35 36 38 38 39 40 39 39 39 40 41
12 11 10 10 10 10 11 11 12 14 14 15 15 18 18 19 19 21 22 23 25 26 28 30 32 33 33 34 34 34 35 34 35 37 36 37 39 39 39 39 38 39 40 40
13 12 11 10 11 12 12 12 12 14 15 16 17 19 18 18 19 20 21 23 24 26 28 29 31 32 33 34 35 35 35 34 34 37 38 37 37 38 39 39 39 39 40 41
14 14 13 12 12 13 14 14 14 14 15 17 18 19 18 18 19 20 21 22 23 25 27 29 30 31 32 33 34 36 36 35 35 37 38 38 37 38 38 39 39 39 40 41
16 15 14 14 13 14 15 15 15 16 16 18 19 19 19 19 19 20 21 22 23 24 25 27 29 31 31 32 32 33 35 35 35 36 38 39 38 38 38 39 39 39 40 40
17 16 16 15 15 15 16 16 16 17 18 20 21 21 20 20 21 21 22 23 24 25 26 27 28 30 31 32 32 31 33 34 35 36 38 40 40 40 39 39 40 40 41 41
18 17 17 17 16 16 16 16 17 18 20 20 21 21 20 20 21 22 23 23 24 26 27 28 28 29 31 31 32 32 33 34 35 36 37 39 40 40 40 40 40 41 41 42
20 19 18 18 17 17 16 16 17 18 19 20 20 20 19 20 21 23 24 24 24 25 27 27 29 29 31 31 31 32 32 33 35 36 37 38 40 41 41 40 40 41 41 41
20 19 19 19 18 18 17 17 18 19 20 20 20 19 20 20 21 21 22 24 24 25 26 27 27 28 30 31 31 32 32 32 33 35 37 38 39 41 41 41 40 40 41 41
20 19 19 18 19 19 19 19 19 19 19 19 19 19 20 21 21 21 22 23 24 25 26 27 28 28 29 30 31 31 32 32 33 34 36 37 38 40 40 40 40 39 40 41
19 19 20 20 20 20 20 19 19 19 18 18 19 19 19 20 22 22 22 23 23 24 25 26 27 28 29 31 31 32 33 33 34 34 35 36 37 38 39 39 40 40 39 40
20 20 20 21 21 21 20 20 20 20 19 18 19 19 20 21 22 23 23 23 23 24 25 26 27 27 29 30 32 32 33 33 33 34 34 35 36 38 39 40 40 40 40 39
21 21 21 21 22 22 21 21 21 21 20 19 20 20 21 21 22 22 23 23 24 24 25 26 27 28 29 30 31 31 32 33 33 33 34 34 35 36 37 38 39 40 40 40
21 22 22 23 23 23 22 22 22 22 21 20 20 21 22 22 22 22 22 23 24 24 25 26 26 27 29 30 31 31 31 32 33 34 34 34 33 34 36 37 38 39 40 39
22 22 23 24 24 23 23 23 22 22 22 21 21 22 23 23 23 23 23 23 23 24 25 26 27 28 29 30 31 31 31 32 32 33 33 34 34 34 35 37 39 39 40 39
23 23 23 23 24 23 23 24 24 23 23 23 23 23 24 24 24 23 23 23 23 23 25 25 26 27 28 29 31 31 31 31 32 33 33 33 33 34 34 36 37 38 39 39
23 22 22 22 22 22 21 22 23 23 22 22 22 22 23 23 23 23 22 22 23 23 24 25 25 27 28 29 30 31 32 32 32 32 33 33 34 34 34 35 35 36 37 37
22 22 22 21 21 20 21 22 22 22 22 22 22 23 23 24 23 23 23 23 24 24 25 25 26 26 27 28 29 30 31 31 32 33 33 33 34 34 34 34 34 35 35 35
23 23 22 22 21 21 22 23 22 22 22 22 22 23 23 23 23 23 23 24 24 25 25 26 26 26 27 28 29 30 31 32 32 33 33 33 34 34 33 33 32 32 34 34
23 23 22 21 21 21 22 23 23 23 23 23 24 24 24 24 24 23 23 23 24 24 25 26 26 27 27 28 29 30 30 31 32 32 33 33 32 33 32 32 32 32 32 33
Wind_Direction
315 307 299 294 283 267 260 256 251 243 238 235 233 232 233 234 234 233 231 232 234 233 232 231 230 229 230 230 230 230 233 234 235 234 236 237 237 238 240 241 243 245 247 250
315 308 305 296 282 272 258 253 249 241 237 234 231 231 233 234 233 231 231 233 234 233 233 234 233 232 232 231 232 234 234 235 235 235 236 237 239 240 241 242 243 246 248 250
314 311 305 297 283 264 254 254 251 242 237 236 235 234 234 234 235 236 235 235 237 235 233 234 235 234 233 233 233 234 233 236 237 238 237 239 240 241 242 243 244 246 249 250
314 308 304 296 286 267 256 253 251 244 239 243 242 242 238 237 237 238 238 237 238 237 235 235 236 236 235 235 235 235 235 236 238 239 239 240 242 242 242 245 246 246 248 251
310 304 301 298 284 265 258 254 251 246 243 246 248 250 245 244 240 240 240 239 240 239 236 235 237 238 238 238 238 239 238 238 238 240 241 241 242 244 243 245 247 248 249 251
309 303 298 295 282 268 264 260 251 252 255 256 254 255 253 248 245 244 242 241 241 238 236 236 236 238 239 240 240 240 240 240 239 240 241 243 244 245 246 246 247 249 250 252
306 304 299 291 281 269 265 264 261 261 259 262 263 262 261 254 251 249 246 243 242 239 237 236 237 239 241 241 241 241 242 243 242 242 243 245 246 247 248 249 250 250 251 253
302 300 299 290 285 274 267 267 271 270 267 268 268 270 268 262 257 253 250 248 246 245 244 241 239 239 241 241 243 242 243 244 244 243 244 246 248 248 249 250 252 252 252 254
298 292 293 290 283 277 272 272 275 276 273 273 272 275 271 268 261 255 251 250 248 246 245 245 244 242 241 243 244 244 244 245 246 246 246 246 249 250 250 251 253 254 254 255
298 289 285 283 281 276 273 272 276 276 278 277 277 277 273 269 262 257 252 251 250 249 248 247 246 244 242 243 245 245 246 246 247 247 246 247 250 251 252 254 255 255 256 256
303 294 287 281 279 280 277 272 272 275 276 277 278 275 275 267 263 259 256 254 252 251 249 248 246 245 244 245 246 246 247 247 248 249 248 249 250 252 254 255 256 256 257 257
300 296 288 283 281 283 283 279 273 275 278 278 278 278 276 270 265 262 260 257 255 254 252 250 247 247 247 247 248 249 248 249 250 251 251 252 252 254 256 257 257 257 258 259
298 294 291 286 281 281 283 283 278 275 277 278 277 278 276 273 267 265 265 262 260 258 255 252 250 249 248 249 250 251 251 251 252 253 254 253 253 254 255 256 257 259 259 260
298 293 290 289 284 279 281 285 282 277 277 278 278 276 271 270 269 266 266 264 261 259 257 254 252 251 251 253 254 254 254 254 255 255 255 255 254 254 255 257 258 259 259 260
297 293 290 287 283 276 277 282 284 281 280 279 280 277 272 270 268 268 268 267 262 259 258 256 255 254 254 256 256 257 257 257 257 256 256 257 256 255 256 257 258 259 259 260
295 291 287 286 284 277 276 277 282 283 280 282 283 281 275 272 270 270 270 269 266 262 260 258 258 258 257 257 258 258 258 259 259 259 258 258 257 256 256 257 258 260 261 261
296 291 287 285 285 279 278 280 280 281 281 284 285 284 278 276 275 272 272 271 268 264 263 262 262 262 260 259 258 259 258 260 260 260 260 259 258 257 256 257 258 260 262 263
294 291 288 286 286 283 282 280 279 279 279 284 285 283 281 282 282 277 274 272 270 266 264 265 265 264 263 262 261 260 259 260 260 260 260 260 261 259 258 258 259 260 262 263
292 290 288 286 286 286 282 281 280 280 279 282 285 282 280 282 283 279 275 272 269 268 267 266 266 265 264 264 263 261 260 261 261 261 261 261 262 262 260 260 261 262 262 263
291 289 286 286 286 286 283 279 278 280 280 283 284 283 281 281 282 280 278 274 270 267 267 268 267 266 266 265 264 263 264 263 263 263 262 262 264 264 263 262 262 263 263 264
290 289 287 286 285 285 282 278 279 281 285 284 282 282 283 284 283 283 280 277 274 272 271 270 269 267 267 267 265 264 264 264 263 264 263 263 264 265 264 263 263 264 264 264
289 291 290 288 286 285 282 279 280 283 284 282 281 282 283 283 283 283 281 280 278 276 274 272 269 268 268 268 267 265 264 264 263 263 263 265 266 267 266 265 264 264 264 263
291 291 291 290 288 285 283 281 281 283 283 282 281 281 282 283 283 281 279 279 278 278 276 274 271 270 270 270 267 267 266 265 265 265 265 266 267 268 268 266 265 265 265 264
293 292 290 288 287 284 282 281 281 281 281 282 282 281 281 281 281 279 278 279 279 279 277 276 275 274 274 273 270 268 268 267 267 267 268 268 269 269 268 267 266 264 264 263
293 291 288 286 284 284 283 283 282 281 280 279 281 282 283 282 281 281 280 279 279 279 279 278 277 276 276 275 273 271 270 269 268 268 269 270 270 270 269 267 265 264 262 263
291 290 288 285 284 284 286 286 283 283 282 281 281 282 283 282 282 281 281 280 280 281 281 280 278 278 278 278 276 274 272 272 270 269 269 270 271 270 270 268 266 265 264 263
Height
5689 5687 5685 5684 5683 5682 5683 5683 5684 5686 5688 5690 5692 5695 5698 5701 5704 5707 5710 5712 5715 5718 5722 5725 5728 5732 5735 5739 5743 5746 5749 5753 5756 5760 5763 5766 5769 5773 5776 5778 5781 5784 5786 5788
5687 5684 5682 5680 5679 5679 5679 5680 5681 5683 5684 5686 5688 5691 5693 5695 5698 5701 5704 5707 5709 5712 5715 5718 5722 5725 5728 5732 5735 5738 5742 5745 5748 5751 5755 5758 5761 5764 5767 5770 5773 5775 5778 5779
5683 5682 5679 5677 5677 5676 5677 5678 5678 5680 5681 5683 5685 5687 5689 5691 5693 5696 5699 5701 5704 5706 5709 5712 5715 5718 5722 5724 5727 5731 5733 5737 5740 5743 5746 5750 5753 5756 5759 5762 5765 5767 5769 5771
5680 5678 5676 5675 5674 5674 5675 5675 5676 5677 5679 5680 5682 5683 5685 5687 5689 5691 5693 5696 5699 5701 5703 5706 5709 5712 5715 5718 5721 5723 5726 5729 5732 5735 5738 5742 5745 5747 5750 5753 5756 5759 5760 5762
5677 5675 5674 5672 5672 5672 5672 5673 5674 5675 5676 5677 5678 5679 5681 5682 5685 5687 5689 5691 5693 5695 5698 5700 5703 5706 5708 5711 5714 5717 5719 5722 5725 5728 5731 5734 5736 5739 5742 5745 5748 5750 5752 5754
5674 5673 5671 5670 5670 5670 5670 5671 5672 5672 5673 5674 5675 5676 5677 5678 5681 5682 5684 5686 5687 5689 5692 5694 5696 5699 5701 5704 5707 5710 5712 5715 5717 5720 5723 5726 5728 5731 5733 5736 5739 5741 5743 5745
5672 5671 5669 5668 5668 5668 5668 5669 5669 5669 5669 5670 5671 5671 5673 5675 5676 5678 5679 5681 5682 5683 5685 5687 5689 5692 5694 5697 5699 5702 5705 5707 5710 5712 5715 5717 5720 5722 5725 5727 5729 5732 5734 5736
5669 5669 5667 5666 5666 5666 5666 5666 5667 5666 5666 5667 5667 5668 5670 5670 5671 5672 5673 5675 5676 5677 5679 5681 5683 5685 5688 5690 5692 5694 5697 5699 5702 5704 5707 5709 5711 5714 5716 5718 5720 5722 5724 5726
5666 5666 5665 5664 5663 5663 5663 5663 5664 5663 5663 5663 5663 5663 5665 5665 5666 5666 5667 5668 5670 5671 5673 5674 5676 5678 5680 5682 5685 5687 5689 5691 5694 5696 5699 5701 5703 5705 5707 5710 5711 5713 5715 5717
5664 5663 5662 5661 5661 5660 5660 5660 5660 5659 5658 5657 5658 5659 5660 5660 5660 5661 5661 5662 5664 5665 5666 5668 5669 5671 5673 5675 5677 5679 5681 5684 5686 5688 5690 5693 5695 5697 5699 5700 5702 5704 5706 5707
5661 5660 5659 5658 5657 5657 5657 5656 5655 5654 5654 5653 5653 5656 5655 5655 5655 5656 5656 5656 5657 5658 5660 5661 5662 5664 5666 5668 5670 5671 5673 5676 5678 5680 5682 5684 5686 5688 5690 5691 5693 5695 5696 5698
5657 5656 5655 5654 5654 5653 5652 5651 5651 5651 5650 5649 5648 5652 5649 5649 5649 5650 5650 5651 5651 5652 5653 5654 5655 5657 5659 5660 5662 5664 5665 5667 5669 5671 5673 5675 5677 5679 5681 5682 5684 5686 5687 5688
5653 5652 5650 5649 5651 5650 5648 5647 5646 5646 5645 5644 5643 5647 5644 5643 5643 5644 5644 5644 5645 5645 5646 5647 5648 5650 5651 5653 5654 5656 5657 5659 5661 5663 5664 5666 5668 5669 5671 5673 5674 5676 5677 5678
5648 5647 5647 5646 5644 5643 5643 5643 5642 5641 5640 5639 5639 5639 5639 5638 5638 5638 5638 5638 5638 5638 5639 5640 5641 5642 5644 5645 5647 5648 5649 5650 5652 5653 5655 5656 5658 5660 5662 5663 5664 5666 5667 5669
5643 5642 5641 5640 5639 5639 5638 5638 5637 5636 5635 5634 5633 5633 5633 5632 5632 5631 5631 5631 5631 5631 5632 5633 5634 5635 5636 5637 5638 5640 5641 5642 5643 5644 5645 5647 5648 5650 5652 5653 5654 5656 5657 5658
5638 5637 5636 5636 5634 5633 5633 5633 5632 5630 5629 5628 5627 5627 5627 5626 5625 5625 5625 5624 5624 5625 5625 5626 5627 5628 5629 5629 5630 5631 5632 5633 5634 5635 5636 5637 5638 5640 5641 5643 5644 5645 5647 5648
5632 5631 5630 5630 5629 5627 5628 5628 5626 5625 5624 5623 5622 5622 5621 5620 5619 5619 5619 5618 5618 5618 5618 5618 5619 5620 5620 5621 5622 5622 5623 5624 5624 5625 5626 5627 5628 5629 5631 5632 5634 5635 5636 5637
5627 5626 5624 5623 5623 5622 5625 5622 5621 5619 5619 5618 5616 5616 5615 5614 5613 5613 5612 5611 5611 5611 5611 5611 5612 5612 5612 5613 5613 5614 5614 5615 5615 5616 5617 5618 5618 5619 5621 5622 5623 5625 5626 5626
5622 5620 5618 5617 5616 5615 5617 5616 5614 5613 5613 5612 5611 5610 5609 5608 5607 5607 5606 5605 5605 5604 5604 5604 5604 5604 5604 5604 5605 5605 5605 5606 5606 5606 5607 5608 5609 5609 5610 5612 5613 5614 5614 5615
5616 5614 5613 5611 5609 5609 5611 5610 5608 5608 5607 5607 5605 5604 5603 5602 5602 5602 5600 5598 5598 5598 5597 5597 5596 5596 5596 5596 5596 5597 5597 5597 5597 5597 5597 5598 5598 5599 5600 5601 5602 5602 5603 5604
5610 5608 5606 5604 5602 5602 5603 5602 5601 5602 5602 5600 5598 5597 5597 5595 5595 5594 5593 5592 5591 5591 5590 5589 5589 5588 5588 5588 5588 5588 5588 5588 5588 5588 5588 5588 5589 5589 5590 5590 5591 5591 5592 5593
5602 5601 5599 5598 5596 5599 5596 5595 5595 5595 5594 5593 5592 5591 5590 5589 5588 5587 5586 5585 5584 5583 5582 5582 5581 5580 5580 5579 5579 5579 5579 5579 5579 5579 5579 5579 5579 5579 5579 5579 5579 5580 5580 5581
5596 5595 5593 5592 5592 5590 5589 5588 5588 5587 5586 5586 5585 5584 5583 5582 5581 5580 5579 5578 5577 5576 5575 5574 5573 5573 5572 5571 5571 5571 5570 5570 5570 5570 5570 5569 5569 5569 5568 5568 5568 5569 5569 5569
5589 5588 5586 5585 5585 5584 5582 5581 5581 5580 5579 5578 5578 5577 5576 5575 5574 5573 5572 5571 5570 5569 5568 5567 5566 5565 5564 5563 5562 5562 5561 5561 5561 5560 5560 5560 5559 5558 5558 5557 5557 5557 5558 5559
5582 5581 5579 5579 5579 5577 5576 5575 5574 5573 5572 5571 5571 5570 5569 5568 5567 5566 5565 5564 5563 5562 5560 5559 5558 5557 5556 5555 5553 5553 5552 5551 5551 5550 5550 5549 5549 5548 5548 5547 5547 5547 5548 5548
5576 5574 5573 5572 5572 5570 5570 5568 5567 5566 5565 5564 5563 5562 5561 5560 5559 5558 5557 5556 5555 5554 5552 5551 5550 5548 5547 5546 5545 5543 5543 5542 5541 5540 5540 5540 5539 5538 5538 5537 5537 5537 5538 5538